Time,TemperatureF,DewpointF,PressureIn,WindDirection,WindDirectionDegrees,WindSpeedMPH,WindSpeedGustMPH,Humidity,HourlyPrecipIn,Conditions,Clouds,dailyrainin,SoftwareType,DateUTC
2013-01-29 00:03:00,66.0,66.0,30.26,ENE,76,6.0,8.0,100,0.48,,,-99.99,,2013-01-29 05:03:00,
2013-01-29 00:12:00,66.0,66.0,30.26,ENE,76,6.0,8.0,100,0.48,,,-99.99,,2013-01-29 05:12:00,
2013-01-29 00:21:00,65.0,65.0,30.25,ENE,76,6.0,9.0,100,0.48,,,-99.99,,2013-01-29 05:21:00,
2013-01-29 00:32:00,65.0,65.0,30.25,ENE,75,8.0,10.0,100,0.48,,,-99.99,,2013-01-29 05:32:00,
2013-01-29 00:42:00,65.0,65.0,30.25,ENE,75,8.0,10.0,100,0.48,,,-99.99,,2013-01-29 05:42:00,
2013-01-29 00:52:00,65.0,65.0,30.24,ENE,76,8.0,9.0,100,0.48,,,-99.99,,2013-01-29 05:52:00,
2013-01-29 01:02:00,65.0,65.0,30.24,East,83,7.0,9.0,100,0.48,,,-99.99,,2013-01-29 06:02:00,
2013-01-29 01:11:00,65.0,65.0,30.24,East,83,7.0,9.0,100,0.48,,,-99.99,,2013-01-29 06:11:00,
2013-01-29 01:21:00,65.0,65.0,30.24,ENE,77,7.0,8.0,100,0.48,,,-99.99,,2013-01-29 06:21:00,
2013-01-29 01:32:00,65.0,65.0,30.23,East,79,7.0,9.0,100,0.48,,,-99.99,,2013-01-29 06:32:00,
2013-01-29 01:42:00,65.0,65.0,30.23,East,79,7.0,9.0,100,0.48,,,-99.99,,2013-01-29 06:42:00,
2013-01-29 01:52:00,64.0,64.0,30.23,East,89,7.0,9.0,100,0.48,,,-99.99,,2013-01-29 06:52:00,
2013-01-29 02:01:00,64.0,64.0,30.22,East,100,7.0,9.0,100,0.48,,,-99.99,,2013-01-29 07:01:00,
2013-01-29 02:11:00,64.0,64.0,30.22,East,100,7.0,9.0,100,0.48,,,-99.99,,2013-01-29 07:11:00,
2013-01-29 02:21:00,64.0,64.0,30.22,ENE,75,7.0,9.0,100,0.48,,,-99.99,,2013-01-29 07:21:00,
2013-01-29 02:32:00,64.0,64.0,30.22,East,89,7.0,9.0,100,0.48,,,-99.99,,2013-01-29 07:32:00,
2013-01-29 02:42:00,64.0,64.0,30.22,East,89,7.0,9.0,100,0.48,,,-99.99,,2013-01-29 07:42:00,
2013-01-29 02:52:00,64.0,64.0,30.22,East,79,6.0,8.0,100,0.48,,,-99.99,,2013-01-29 07:52:00,
2013-01-29 03:02:00,65.0,65.0,30.22,ENE,76,6.0,9.0,100,0.48,,,-99.99,,2013-01-29 08:02:00,
2013-01-29 03:11:00,65.0,65.0,30.22,ENE,76,6.0,9.0,100,0.48,,,-99.99,,2013-01-29 08:11:00,
2013-01-29 03:21:00,65.0,65.0,30.22,ENE,75,4.0,8.0,100,0.48,,,-99.99,,2013-01-29 08:21:00,
2013-01-29 03:32:00,65.0,65.0,30.22,East,82,5.0,7.0,100,0.48,,,-99.99,,2013-01-29 08:32:00,
2013-01-29 03:42:00,65.0,65.0,30.22,East,82,5.0,7.0,100,0.48,,,-99.99,,2013-01-29 08:42:00,
2013-01-29 03:52:00,65.0,65.0,30.21,East,84,6.0,8.0,100,0.48,,,-99.99,,2013-01-29 08:52:00,
2013-01-29 04:01:00,65.0,65.0,30.21,ENE,75,5.0,8.0,100,0.48,,,-99.99,,2013-01-29 09:01:00,
2013-01-29 04:11:00,65.0,65.0,30.21,ENE,75,5.0,8.0,100,0.48,,,-99.99,,2013-01-29 09:11:00,
2013-01-29 04:21:00,65.0,65.0,30.21,ENE,73,5.0,8.0,100,0.48,,,-99.99,,2013-01-29 09:21:00,
2013-01-29 04:32:00,65.0,65.0,30.21,East,82,6.0,8.0,100,0.48,,,-99.99,,2013-01-29 09:32:00,
2013-01-29 04:42:00,65.0,65.0,30.21,East,82,6.0,8.0,100,0.48,,,-99.99,,2013-01-29 09:42:00,
2013-01-29 04:52:00,65.0,65.0,30.21,East,101,6.0,9.0,100,0.48,,,-99.99,,2013-01-29 09:52:00,
2013-01-29 05:01:00,64.0,64.0,30.21,East,90,7.0,9.0,100,0.48,,,-99.99,,2013-01-29 10:01:00,
2013-01-29 05:11:00,64.0,64.0,30.21,East,90,7.0,9.0,100,0.48,,,-99.99,,2013-01-29 10:11:00,
2013-01-29 05:21:00,64.0,64.0,30.20,East,80,7.0,9.0,100,0.48,,,-99.99,,2013-01-29 10:21:00,
2013-01-29 05:32:00,64.0,64.0,30.20,East,79,7.0,9.0,100,0.48,,,-99.99,,2013-01-29 10:32:00,
2013-01-29 05:42:00,64.0,64.0,30.20,East,79,7.0,9.0,100,0.48,,,-99.99,,2013-01-29 10:42:00,
2013-01-29 05:52:00,64.0,64.0,30.21,East,89,6.0,9.0,100,0.48,,,-99.99,,2013-01-29 10:52:00,
2013-01-29 06:02:00,64.0,64.0,30.21,East,84,5.0,7.0,100,0.48,,,-99.99,,2013-01-29 11:02:00,
2013-01-29 06:11:00,64.0,64.0,30.21,East,84,5.0,7.0,100,0.48,,,-99.99,,2013-01-29 11:11:00,
2013-01-29 06:22:00,64.0,64.0,30.22,East,91,5.0,8.0,100,0.48,,,-99.99,,2013-01-29 11:22:00,
2013-01-29 06:32:00,64.0,64.0,30.22,East,83,4.0,8.0,100,0.48,,,-99.99,,2013-01-29 11:32:00,
2013-01-29 06:42:00,64.0,64.0,30.22,East,83,4.0,8.0,100,0.48,,,-99.99,,2013-01-29 11:42:00,
2013-01-29 06:53:00,64.0,64.0,30.22,ENE,70,5.0,8.0,100,0.48,,,-99.99,,2013-01-29 11:53:00,
2013-01-29 07:02:00,64.0,64.0,30.22,ENE,77,5.0,9.0,100,0.48,,,-99.99,,2013-01-29 12:02:00,
2013-01-29 07:12:00,64.0,64.0,30.22,East,79,6.0,8.0,100,0.48,,,-99.99,,2013-01-29 12:12:00,
2013-01-29 07:22:00,64.0,64.0,30.22,East,79,6.0,8.0,100,0.48,,,-99.99,,2013-01-29 12:22:00,
2013-01-29 07:33:00,64.0,64.0,30.23,East,79,5.0,8.0,100,0.48,,,-99.99,,2013-01-29 12:33:00,
2013-01-29 07:43:00,64.0,64.0,30.23,East,79,5.0,8.0,100,0.48,,,-99.99,,2013-01-29 12:43:00,
2013-01-29 07:52:00,64.0,64.0,30.23,East,86,5.0,7.0,100,0.48,,,-99.99,,2013-01-29 12:52:00,
2013-01-29 08:02:00,64.0,64.0,30.23,East,83,6.0,8.0,100,0.48,,,-99.99,,2013-01-29 13:02:00,
2013-01-29 08:12:00,64.0,64.0,30.23,East,83,6.0,8.0,100,0.48,,,-99.99,,2013-01-29 13:12:00,
2013-01-29 08:22:00,64.0,64.0,30.23,ENE,76,6.0,8.0,100,0.48,,,-99.99,,2013-01-29 13:22:00,
2013-01-29 08:32:00,64.0,64.0,30.24,East,82,6.0,9.0,100,0.48,,,-99.99,,2013-01-29 13:32:00,
2013-01-29 08:42:00,64.0,64.0,30.24,East,82,6.0,9.0,100,0.48,,,-99.99,,2013-01-29 13:42:00,
2013-01-29 08:52:00,65.0,65.0,30.24,East,79,5.0,7.0,100,0.48,,,-99.99,,2013-01-29 13:52:00,
2013-01-29 09:02:00,66.0,66.0,30.23,East,86,6.0,9.0,100,0.48,,,-99.99,,2013-01-29 14:02:00,
2013-01-29 09:12:00,66.0,66.0,30.23,East,90,6.0,10.0,100,0.48,,,-99.99,,2013-01-29 14:12:00,
2013-01-29 09:22:00,66.0,66.0,30.23,East,90,6.0,10.0,100,0.48,,,-99.99,,2013-01-29 14:22:00,
2013-01-29 09:33:00,67.0,67.0,30.24,ESE,108,5.0,8.0,100,0.48,,,-99.99,,2013-01-29 14:33:00,
2013-01-29 09:43:00,67.0,67.0,30.24,ESE,108,5.0,8.0,100,0.48,,,-99.99,,2013-01-29 14:43:00,
2013-01-29 09:53:00,68.0,68.0,30.24,ESE,107,7.0,11.0,100,0.48,,,-99.99,,2013-01-29 14:53:00,
2013-01-29 10:02:00,69.0,69.0,30.24,ESE,115,6.0,9.0,100,0.48,,,-99.99,,2013-01-29 15:02:00,
2013-01-29 10:12:00,69.0,69.0,30.24,ESE,115,6.0,9.0,100,0.48,,,-99.99,,2013-01-29 15:12:00,
2013-01-29 10:22:00,69.0,69.0,30.24,East,97,7.0,11.0,100,0.48,,,-99.99,,2013-01-29 15:22:00,
2013-01-29 10:33:00,70.0,70.0,30.23,SE,125,7.0,11.0,100,0.48,,,-99.99,,2013-01-29 15:33:00,
2013-01-29 10:43:00,70.0,70.0,30.23,SE,125,7.0,11.0,100,0.48,,,-99.99,,2013-01-29 15:43:00,
2013-01-29 10:53:00,72.0,72.0,30.23,ESE,115,8.0,13.0,100,0.48,,,-99.99,,2013-01-29 15:53:00,
2013-01-29 11:02:00,74.0,67.0,30.23,SE,142,7.0,12.0,79,0.48,,,-99.99,,2013-01-29 16:02:00,
2013-01-29 11:12:00,74.0,67.0,30.23,SE,142,7.0,12.0,79,0.48,,,-99.99,,2013-01-29 16:12:00,
2013-01-29 11:23:00,75.0,64.0,30.22,SE,131,9.0,14.0,69,0.48,,,-99.99,,2013-01-29 16:23:00,
2013-01-29 11:32:00,76.0,64.0,30.21,SSE,155,9.0,15.0,66,0.48,,,-99.99,,2013-01-29 16:32:00,
2013-01-29 11:43:00,76.0,64.0,30.21,SSE,155,9.0,15.0,66,0.48,,,-99.99,,2013-01-29 16:43:00,
2013-01-29 11:53:00,77.0,64.0,30.21,SSE,150,11.0,17.0,64,0.48,,,-99.99,,2013-01-29 16:53:00,
2013-01-29 12:03:00,78.0,65.0,30.20,SE,127,10.0,16.0,64,0.48,,,-99.99,,2013-01-29 17:03:00,
2013-01-29 12:12:00,78.0,65.0,30.20,SE,127,10.0,16.0,64,0.48,,,-99.99,,2013-01-29 17:12:00,
2013-01-29 12:22:00,79.0,64.0,30.19,SSE,149,11.0,17.0,61,0.48,,,-99.99,,2013-01-29 17:22:00,
2013-01-29 12:32:00,79.0,64.0,30.18,East,101,11.0,16.0,61,0.48,,,-99.99,,2013-01-29 17:32:00,
2013-01-29 12:42:00,79.0,64.0,30.18,East,101,11.0,16.0,61,0.48,,,-99.99,,2013-01-29 17:42:00,
2013-01-29 12:52:00,81.0,65.0,30.17,East,91,10.0,16.0,59,0.48,,,-99.99,,2013-01-29 17:52:00,
2013-01-29 13:04:00,81.0,63.0,30.16,ESE,114,11.0,17.0,55,0.48,,,-99.99,,2013-01-29 18:04:00,
2013-01-29 13:12:00,81.0,63.0,30.16,ESE,114,11.0,17.0,55,0.48,,,-99.99,,2013-01-29 18:12:00,
2013-01-29 13:22:00,80.0,62.0,30.15,SE,131,10.0,17.0,54,0.48,,,-99.99,,2013-01-29 18:22:00,
2013-01-29 13:33:00,81.0,62.0,30.14,SE,138,9.0,14.0,53,0.48,,,-99.99,,2013-01-29 18:33:00,
2013-01-29 13:42:00,81.0,62.0,30.14,SE,138,9.0,14.0,53,0.48,,,-99.99,,2013-01-29 18:42:00,
2013-01-29 13:52:00,82.0,63.0,30.14,SE,135,9.0,14.0,52,0.48,,,-99.99,,2013-01-29 18:52:00,
2013-01-29 14:03:00,83.0,63.0,30.13,ESE,114,8.0,13.0,51,0.48,,,-99.99,,2013-01-29 19:03:00,
2013-01-29 14:12:00,83.0,63.0,30.13,ESE,114,8.0,13.0,51,0.48,,,-99.99,,2013-01-29 19:12:00,
2013-01-29 14:22:00,84.0,62.0,30.13,SE,125,9.0,17.0,48,0.48,,,-99.99,,2013-01-29 19:22:00,
2013-01-29 14:32:00,82.0,63.0,30.13,SE,143,7.0,11.0,52,0.48,,,-99.99,,2013-01-29 19:32:00,
2013-01-29 14:42:00,82.0,63.0,30.13,SE,143,7.0,11.0,52,0.48,,,-99.99,,2013-01-29 19:42:00,
2013-01-29 14:52:00,83.0,61.0,30.12,SE,132,8.0,13.0,48,0.48,,,-99.99,,2013-01-29 19:52:00,
2013-01-29 15:02:00,81.0,64.0,30.12,East,96,5.0,9.0,57,0.48,,,-99.99,,2013-01-29 20:02:00,
2013-01-29 15:12:00,81.0,64.0,30.12,East,96,5.0,9.0,57,0.48,,,-99.99,,2013-01-29 20:12:00,
2013-01-29 15:22:00,81.0,65.0,30.11,East,100,9.0,14.0,58,0.48,,,-99.99,,2013-01-29 20:22:00,
2013-01-29 15:33:00,81.0,66.0,30.11,East,97,8.0,13.0,60,0.48,,,-99.99,,2013-01-29 20:33:00,
2013-01-29 15:42:00,81.0,66.0,30.11,East,97,8.0,13.0,60,0.48,,,-99.99,,2013-01-29 20:42:00,
2013-01-29 15:53:00,80.0,66.0,30.11,ESE,105,9.0,16.0,62,0.48,,,-99.99,,2013-01-29 20:53:00,
2013-01-29 16:03:00,79.0,66.0,30.11,ESE,105,9.0,13.0,64,0.48,,,-99.99,,2013-01-29 21:03:00,
2013-01-29 16:12:00,79.0,66.0,30.11,ESE,105,9.0,13.0,64,0.48,,,-99.99,,2013-01-29 21:12:00,
2013-01-29 16:22:00,79.0,66.0,30.11,ESE,110,7.0,13.0,64,0.48,,,-99.99,,2013-01-29 21:22:00,
2013-01-29 16:33:00,79.0,66.0,30.11,ESE,104,8.0,15.0,64,0.48,,,-99.99,,2013-01-29 21:33:00,
2013-01-29 16:42:00,79.0,66.0,30.11,ESE,104,8.0,15.0,64,0.48,,,-99.99,,2013-01-29 21:42:00,
2013-01-29 16:53:00,78.0,66.0,30.11,East,87,10.0,15.0,67,0.48,,,-99.99,,2013-01-29 21:53:00,
2013-01-29 17:03:00,77.0,65.0,30.11,ESE,104,9.0,15.0,67,0.48,,,-99.99,,2013-01-29 22:03:00,
2013-01-29 17:12:00,77.0,65.0,30.11,ESE,104,9.0,15.0,67,0.48,,,-99.99,,2013-01-29 22:12:00,
2013-01-29 17:22:00,77.0,65.0,30.11,ESE,114,8.0,15.0,66,0.48,,,-99.99,,2013-01-29 22:22:00,
2013-01-29 17:33:00,77.0,66.0,30.11,East,91,8.0,12.0,68,0.48,,,-99.99,,2013-01-29 22:33:00,
2013-01-29 17:42:00,77.0,66.0,30.11,East,91,8.0,12.0,68,0.48,,,-99.99,,2013-01-29 22:42:00,
2013-01-29 17:53:00,76.0,65.0,30.11,ESE,107,8.0,14.0,69,0.48,,,-99.99,,2013-01-29 22:53:00,
2013-01-29 18:02:00,75.0,65.0,30.11,ESE,103,10.0,17.0,70,0.48,,,-99.99,,2013-01-29 23:02:00,
2013-01-29 18:12:00,75.0,65.0,30.11,ESE,103,10.0,17.0,70,0.48,,,-99.99,,2013-01-29 23:12:00,
2013-01-29 18:23:00,75.0,65.0,30.11,ESE,105,10.0,16.0,71,0.48,,,-99.99,,2013-01-29 23:23:00,
2013-01-29 18:33:00,74.0,65.0,30.11,ESE,104,10.0,17.0,73,0.48,,,-99.99,,2013-01-29 23:33:00,
2013-01-29 18:42:00,74.0,65.0,30.11,ESE,104,10.0,17.0,73,0.48,,,-99.99,,2013-01-29 23:42:00,
2013-01-29 18:52:00,73.0,64.0,30.11,ESE,118,7.0,12.0,74,0.48,,,-99.99,,2013-01-29 23:52:00,
2013-01-29 19:03:00,73.0,65.0,30.12,ESE,103,9.0,14.0,76,0.48,,,-99.99,,2013-01-30 00:03:00,
2013-01-29 19:12:00,73.0,65.0,30.12,ESE,103,9.0,14.0,76,0.48,,,-99.99,,2013-01-30 00:12:00,
2013-01-29 19:22:00,72.0,65.0,30.12,ESE,107,8.0,14.0,79,0.48,,,-99.99,,2013-01-30 00:22:00,
2013-01-29 19:32:00,72.0,65.0,30.12,ESE,111,8.0,13.0,80,0.48,,,-99.99,,2013-01-30 00:32:00,
2013-01-29 19:43:00,72.0,65.0,30.12,ESE,111,8.0,13.0,80,0.48,,,-99.99,,2013-01-30 00:43:00,
2013-01-29 19:53:00,72.0,67.0,30.13,East,101,9.0,14.0,84,0.48,,,-99.99,,2013-01-30 00:53:00,
2013-01-29 20:02:00,71.0,67.0,30.13,East,100,8.0,12.0,88,0.48,,,-99.99,,2013-01-30 01:02:00,
2013-01-29 20:12:00,71.0,67.0,30.13,East,100,8.0,12.0,88,0.48,,,-99.99,,2013-01-30 01:12:00,
2013-01-29 20:22:00,71.0,68.0,30.13,East,100,7.0,11.0,91,0.48,,,-99.99,,2013-01-30 01:22:00,
2013-01-29 20:32:00,70.0,68.0,30.12,ESE,107,9.0,13.0,95,0.48,,,-99.99,,2013-01-30 01:32:00,
2013-01-29 20:42:00,70.0,68.0,30.12,ESE,107,9.0,13.0,95,0.48,,,-99.99,,2013-01-30 01:42:00,
2013-01-29 20:52:00,70.0,69.0,30.12,ESE,107,7.0,12.0,97,0.48,,,-99.99,,2013-01-30 01:52:00,
2013-01-29 21:02:00,70.0,70.0,30.12,ESE,111,8.0,13.0,100,0.48,,,-99.99,,2013-01-30 02:02:00,
2013-01-29 21:12:00,69.0,69.0,30.12,ESE,122,8.0,15.0,100,0.48,,,-99.99,,2013-01-30 02:12:00,
2013-01-29 21:22:00,69.0,69.0,30.12,ESE,122,8.0,15.0,100,0.48,,,-99.99,,2013-01-30 02:22:00,
2013-01-29 21:33:00,69.0,69.0,30.12,SE,124,7.0,13.0,100,0.48,,,-99.99,,2013-01-30 02:33:00,
2013-01-29 21:42:00,69.0,69.0,30.12,SE,124,7.0,13.0,100,0.48,,,-99.99,,2013-01-30 02:42:00,
2013-01-29 21:53:00,69.0,69.0,30.12,SE,125,8.0,13.0,100,0.48,,,-99.99,,2013-01-30 02:53:00,
2013-01-29 22:03:00,69.0,69.0,30.11,SE,134,8.0,12.0,100,0.48,,,-99.99,,2013-01-30 03:03:00,
2013-01-29 22:12:00,69.0,69.0,30.11,SE,134,8.0,12.0,100,0.48,,,-99.99,,2013-01-30 03:12:00,
2013-01-29 22:22:00,69.0,69.0,30.11,SE,129,7.0,13.0,100,0.48,,,-99.99,,2013-01-30 03:22:00,
2013-01-29 22:32:00,69.0,69.0,30.11,SE,127,7.0,11.0,100,0.48,,,-99.99,,2013-01-30 03:32:00,
2013-01-29 22:42:00,69.0,69.0,30.11,SE,127,7.0,11.0,100,0.48,,,-99.99,,2013-01-30 03:42:00,
2013-01-29 22:52:00,69.0,69.0,30.11,ESE,122,7.0,11.0,100,0.48,,,-99.99,,2013-01-30 03:52:00,
2013-01-29 23:02:00,69.0,68.0,30.11,SSE,149,7.0,12.0,97,0.48,,,-99.99,,2013-01-30 04:02:00,
2013-01-29 23:12:00,69.0,68.0,30.11,SSE,149,7.0,12.0,97,0.48,,,-99.99,,2013-01-30 04:12:00,
2013-01-29 23:22:00,69.0,67.0,30.11,SE,139,7.0,13.0,93,0.48,,,-99.99,,2013-01-30 04:22:00,
2013-01-29 23:32:00,69.0,66.0,30.12,SSE,148,7.0,12.0,89,0.48,,,-99.99,,2013-01-30 04:32:00,
2013-01-29 23:41:00,69.0,66.0,30.12,SSE,148,7.0,12.0,89,0.48,,,-99.99,,2013-01-30 04:41:00,
2013-01-29 23:52:00,70.0,66.0,30.11,SE,145,7.0,13.0,86,0.48,,,-99.99,,2013-01-30 04:52:00,